This is the latest recevied weather packets stored in our database for station/object EA5I-10. If no packets are shown the sender has not sent any weather packets the latest 10 day(s).
| Time | Temp. | Humidity | Pressure | Rain* | Wind** | Luminosity | Snow |
|---|---|---|---|---|---|---|---|
| 1777827784 | 21.11° C | 57% | 1012.4 hPa | - | - | - | - |
| 1777826884 | 21.67° C | 56% | 1012.5 hPa | - | - | - | - |
| 1777825984 | 21.11° C | 56% | 1012.4 hPa | - | - | - | - |
| 1777825084 | 21.11° C | 57% | 1012.6 hPa | - | - | - | - |
| 1777824184 | 21.11° C | 56% | 1012.6 hPa | - | - | - | - |
| 1777823284 | 21.11° C | 56% | 1012.7 hPa | - | - | - | - |
| 1777822383 | 21.11° C | 56% | 1012.7 hPa | - | - | - | - |
| 1777821483 | 21.11° C | 56% | 1012.6 hPa | - | - | - | - |
| 1777820583 | 21.11° C | 56% | 1012.7 hPa | - | - | - | - |
| 1777819683 | 21.11° C | 56% | 1012.9 hPa | - | - | - | - |
| 1777818783 | 20.56° C | 56% | 1013.4 hPa | - | - | - | - |
| 1777817882 | 20° C | 58% | 1013.7 hPa | - | - | - | - |
| 1777816982 | 20° C | 58% | 1014 hPa | - | - | - | - |
| 1777816082 | 20.56° C | 57% | 1013.8 hPa | - | - | - | - |
| 1777815181 | 20.56° C | 56% | 1013.9 hPa | - | - | - | - |
| 1777814281 | 20.56° C | 55% | 1014 hPa | - | - | - | - |
| 1777813381 | 20.56° C | 56% | 1014.2 hPa | - | - | - | - |
| 1777812481 | 20.56° C | 56% | 1014.5 hPa | - | - | - | - |
| 1777811581 | 20° C | 57% | 1014.6 hPa | - | - | - | - |
| 1777810681 | 20.56° C | 57% | 1014.9 hPa | - | - | - | - |
| 1777809781 | 20.56° C | 57% | 1015.1 hPa | - | - | - | - |
| 1777808881 | 20.56° C | 57% | 1015.2 hPa | - | - | - | - |
| 1777807980 | 20° C | 57% | 1015.5 hPa | - | - | - | - |
| 1777807079 | 20° C | 57% | 1015.5 hPa | - | - | - | - |
| 1777806179 | 20° C | 57% | 1015.6 hPa | - | - | - | - |
* Rain since midnight (hover to see other rain measurements)
** Current wind speed in m/s (hover to see current wind gust speed)